Location: Kershaw
(34.5481°N, 80.5823°W)
Time: 17:34:05
(UTC+00:00)

Transit 2A - Pass Details

Date: 09 October 2022
Orbit: 598 x 959 km, 66.7° (Epoch: 06 December)

Event Time Altitude Azimuth Distance (km) Brightness Sun altitude
Rises 03:51:06 0° 255° (WSW) 2,897 - -56.4°
Reaches altitude 10° 03:54:49 10° 286° (WNW) 1,954 - -56.8°
Maximum altitude 03:56:30 12° 310° (NW) 1,816 - -57.0°
Drops below altitude 10° 03:58:11 10° 333° (NNW) 1,940 - -57.2°
Sets 04:01:51 0° 5° (N) 2,849 - -57.6°
